Weather History for Tehachapi, CA

Change the Weather History Date:

Saturday, March 2, 2013

  Actual Average Record
Temperature  
Mean Temperature 53 °F -  
Max Temperature 69 °F 51 °F 69 °F (2013)
Min Temperature 37 °F 34 °F 24 °F (2012)
Degree Days  
Heating Degree Days 12    
Growing Degree Days 3 (Base 50)    
Moisture  
Dew Point 24 °F    
Average Humidity 36    
Maximum Humidity 61    
Minimum Humidity 15    
Precipitation  
Precipitation 0.00 in - - ()
Sea Level Pressure  
Sea Level Pressure 30.27 in    
Wind  
Wind Speed 10 mph (ESE)    
Max Wind Speed 18 mph    
Max Gust Speed 23 mph    
Visibility 10 miles    
Events      
Averages and records for this station are not official NWS values.
T = Trace of Precipitation, MM = Missing Value Source: NWS Daily Summary

Daily Weather History Graph

Daily Weather History Graph

Search for Another Location

Airport:

Trip Planner

Search our weather history database for the weather conditions in past years. The results will help you decide how hot, cold, wet, or windy it might be!

Date:

Astronomy

Mar. 02, 2013 Rise Set
Actual Time 6:21 AM PST 5:50 PM PST
Civil Twilight 5:56 AM PST 6:15 PM PST
Nautical Twilight 5:26 AM PST 6:45 PM PST
Astronomical Twilight 4:57 AM PST 7:14 PM PST
Moon 11:20 PM PST (3/2) 9:06 AM PST (3/2)
Length of Visible Light 12h 19m
Length of Day
11h 29m
Waning Gibbous, 73% of the Moon is Illuminated
Mar 2
Waning Gibbous
Mar 4
Last Quarter
Mar 11
New
Mar 19
First Quarter
Mar 27
Full

Hourly Weather History & Observations

Time (PST) Temp. Windchill Dew Point Humidity Pressure Visibility Wind Dir Wind Speed Gust Speed Precip Events Conditions
12:15 AM 39.2 °F 32.0 °F 19.4 °F 45% 30.37 in 10.0 mi SE 11.5 mph - N/A   Clear
12:35 AM 41.0 °F 35.8 °F 17.6 °F 39% 30.37 in 10.0 mi ESE 8.1 mph - N/A   Clear
12:55 AM 41.0 °F 35.2 °F 19.4 °F 42% 30.37 in 10.0 mi SE 9.2 mph - N/A   Clear
1:15 AM 41.0 °F 34.7 °F 19.4 °F 42% 30.37 in 10.0 mi ESE 10.4 mph - N/A   Clear
1:35 AM 41.0 °F 35.2 °F 19.4 °F 42% 30.36 in 10.0 mi SE 9.2 mph - N/A   Clear
1:55 AM 41.0 °F 35.2 °F 19.4 °F 42% 30.35 in 10.0 mi ESE 9.2 mph - N/A   Clear
2:15 AM 39.2 °F 32.5 °F 19.4 °F 45% 30.35 in 10.0 mi ESE 10.4 mph - N/A   Clear
2:35 AM 39.2 °F 32.5 °F 19.4 °F 45% 30.34 in 10.0 mi SE 10.4 mph - N/A   Clear
2:55 AM 41.0 °F 33.9 °F 19.4 °F 42% 30.33 in 10.0 mi ESE 12.7 mph - N/A   Clear
3:15 AM 41.0 °F 34.7 °F 19.4 °F 42% 30.33 in 10.0 mi ESE 10.4 mph - N/A   Clear
3:35 AM 44.6 °F 38.8 °F 19.4 °F 37% 30.32 in 10.0 mi ESE 11.5 mph - N/A   Clear
3:55 AM 46.4 °F 41.9 °F 19.4 °F 34% 30.33 in 10.0 mi ESE 9.2 mph - N/A   Clear
4:15 AM 44.6 °F 39.2 °F 19.4 °F 37% 30.33 in 10.0 mi ESE 10.4 mph - N/A   Clear
4:35 AM 44.6 °F 38.1 °F 19.4 °F 37% 30.33 in 10.0 mi ESE 13.8 mph - N/A   Clear
4:55 AM 48.2 °F - 19.4 °F 32% 30.33 in 10.0 mi ESE 11.5 mph - N/A   Clear
5:15 AM 44.6 °F 39.2 °F 21.2 °F 39% 30.33 in 10.0 mi ESE 10.4 mph - N/A   Clear
5:35 AM 39.2 °F 32.0 °F 21.2 °F 49% 30.33 in 10.0 mi ESE 11.5 mph - N/A   Clear
5:55 AM 37.4 °F 29.8 °F 19.4 °F 48% 30.33 in 10.0 mi SE 11.5 mph - N/A   Clear
6:15 AM 37.4 °F 29.8 °F 19.4 °F 48% 30.33 in 10.0 mi ESE 11.5 mph - N/A   Clear
6:35 AM 37.4 °F 29.8 °F 21.2 °F 52% 30.33 in 10.0 mi ESE 11.5 mph - N/A   Clear
6:55 AM 39.2 °F 32.0 °F 21.2 °F 49% 30.33 in 10.0 mi ESE 11.5 mph - N/A   Clear
7:15 AM 44.6 °F 39.7 °F 23.0 °F 43% 30.33 in 10.0 mi ESE 9.2 mph - N/A   Clear
7:35 AM 46.4 °F 42.9 °F 24.8 °F 43% 30.33 in 10.0 mi ESE 6.9 mph - N/A   Clear
7:55 AM 55.4 °F - 23.0 °F 29% 30.34 in 10.0 mi ESE 11.5 mph - N/A   Clear
8:15 AM 57.2 °F - 23.0 °F 27% 30.34 in 10.0 mi ESE 10.4 mph - N/A   Clear
8:35 AM 59.0 °F - 23.0 °F 25% 30.34 in 10.0 mi ESE 10.4 mph - N/A   Clear
8:55 AM 60.8 °F - 23.0 °F 23% 30.33 in 10.0 mi ESE 13.8 mph - N/A   Clear
9:15 AM 62.6 °F - 21.2 °F 20% 30.33 in 10.0 mi East 15.0 mph - N/A   Clear
9:35 AM 64.4 °F - 23.0 °F 21% 30.33 in 10.0 mi SE 18.4 mph - N/A   Clear
9:55 AM 64.4 °F - 23.0 °F 21% 30.33 in 10.0 mi SE 13.8 mph 18.4 mph N/A   Clear
10:15 AM 64.4 °F - 23.0 °F 21% 30.32 in 10.0 mi SE 16.1 mph - N/A   Clear
10:35 AM 64.4 °F - 23.0 °F 21% 30.32 in 10.0 mi ESE 17.3 mph 20.7 mph N/A   Clear
10:55 AM 66.2 °F - 23.0 °F 19% 30.32 in 8.0 mi East 13.8 mph 23.0 mph N/A   Clear
11:15 AM 66.2 °F - 23.0 °F 19% 30.31 in 10.0 mi SE 15.0 mph 19.6 mph N/A   Clear
11:35 AM 68.0 °F - 23.0 °F 18% 30.30 in 10.0 mi ESE 16.1 mph - N/A   Clear
11:55 AM 68.0 °F - 23.0 °F 18% 30.29 in 10.0 mi ESE 12.7 mph 20.7 mph N/A   Clear
12:15 PM 68.0 °F - 21.2 °F 17% 30.28 in 10.0 mi ESE 16.1 mph 21.9 mph N/A   Clear
12:35 PM 68.0 °F - 21.2 °F 17% 30.27 in 10.0 mi East 12.7 mph 20.7 mph N/A   Clear
12:55 PM 68.0 °F - 19.4 °F 16% 30.25 in 10.0 mi East 12.7 mph 19.6 mph N/A   Clear
1:15 PM 66.2 °F - 19.4 °F 17% 30.24 in 10.0 mi ESE 10.4 mph 20.7 mph N/A   Clear
1:35 PM 68.0 °F - 19.4 °F 16% 30.23 in 10.0 mi East 10.4 mph - N/A   Clear
1:55 PM 68.0 °F - 19.4 °F 16% 30.22 in 10.0 mi East 11.5 mph - N/A   Clear
2:15 PM 68.0 °F - 19.4 °F 16% 30.22 in 10.0 mi ENE 9.2 mph - N/A   Clear
2:35 PM 69.8 °F - 19.4 °F 15% 30.21 in 10.0 mi East 9.2 mph - N/A   Clear
2:55 PM 68.0 °F - 19.4 °F 16% 30.21 in 10.0 mi East 6.9 mph - N/A   Clear
3:15 PM 66.2 °F - 26.6 °F 23% 30.20 in 10.0 mi NNW 10.4 mph - N/A   Clear
3:35 PM 64.4 °F - 30.2 °F 28% 30.20 in 10.0 mi NW 13.8 mph - N/A   Clear
3:55 PM 66.2 °F - 28.4 °F 24% 30.19 in 10.0 mi NW 12.7 mph - N/A   Clear
4:15 PM 64.4 °F - 28.4 °F 26% 30.19 in 10.0 mi NW 12.7 mph - N/A   Clear
4:35 PM 62.6 °F - 30.2 °F 30% 30.19 in 10.0 mi NW 11.5 mph - N/A   Clear
4:55 PM 64.4 °F - 32.0 °F 30% 30.18 in 10.0 mi NNW 11.5 mph - N/A   Clear
5:15 PM 62.6 °F - 28.4 °F 27% 30.18 in 10.0 mi NW 9.2 mph - N/A   Clear
5:35 PM 59.0 °F - 30.2 °F 34% 30.18 in 10.0 mi NW 8.1 mph - N/A   Clear
5:55 PM 59.0 °F - 32.0 °F 36% 30.18 in 10.0 mi NW 6.9 mph - N/A   Clear
6:15 PM 53.6 °F - 28.4 °F 38% 30.18 in 10.0 mi WNW 5.8 mph - N/A   Clear
6:35 PM 53.6 °F - 30.2 °F 41% 30.19 in 10.0 mi Calm Calm - N/A   Clear
6:55 PM 51.8 °F - 30.2 °F 44% 30.19 in 10.0 mi Calm Calm - N/A   Clear
7:15 PM 51.8 °F - 26.6 °F 38% 30.20 in 10.0 mi Calm Calm - N/A   Clear
7:35 PM 50.0 °F - 26.6 °F 40% 30.20 in 10.0 mi Calm Calm - N/A   Clear
7:55 PM 48.2 °F - 28.4 °F 46% 30.20 in 10.0 mi Calm Calm - N/A   Clear
8:15 PM 46.4 °F - 26.6 °F 46% 30.19 in 10.0 mi Calm Calm - N/A   Clear
8:35 PM 42.8 °F - 28.4 °F 57% 30.20 in 10.0 mi Calm Calm - N/A   Clear
8:55 PM 44.6 °F - 28.4 °F 53% 30.20 in 10.0 mi Calm Calm - N/A   Clear
9:15 PM 42.8 °F - 28.4 °F 57% 30.21 in 10.0 mi Calm Calm - N/A   Clear
9:35 PM 41.0 °F - 28.4 °F 61% 30.21 in 10.0 mi Calm Calm - N/A   Clear
9:55 PM 44.6 °F - 28.4 °F 53% 30.20 in 10.0 mi Calm Calm - N/A   Clear
10:15 PM 44.6 °F - 30.2 °F 57% 30.20 in 10.0 mi Calm Calm - N/A   Clear
10:35 PM 44.6 °F 43.1 °F 32.0 °F 61% 30.20 in 10.0 mi NW 3.5 mph - N/A   Clear
10:55 PM 44.6 °F 43.1 °F 32.0 °F 61% 30.18 in 10.0 mi WSW 3.5 mph - N/A   Clear
11:15 PM 48.2 °F - 32.0 °F 54% 30.19 in 10.0 mi West 10.4 mph - N/A   Clear
11:35 PM 51.8 °F - 32.0 °F 47% 30.18 in 10.0 mi West 8.1 mph - N/A   Scattered Clouds
11:55 PM 50.0 °F - 32.0 °F 50% 30.19 in 10.0 mi West 11.5 mph - N/A   Scattered Clouds